Location: Mercogliano
(40.9167°N, 14.7333°E)
Time: 07:36:31
(UTC+00:00)

CZ-2C R/B - Pass Details

Date: 19 January 2021
Orbit: 785 x 870 km, 98.2° (Epoch: 08 March)

Event Time Altitude Azimuth Distance (km) Brightness Sun altitude
Exits shadow 19:46:18 20° 294° (WNW) 1,884 5.0 -41.9°
Drops below altitude 10° 19:49:59 10° 252° (WSW) 2,504 5.7 -42.6°
Sets 19:52:58 0° 236° (SW) 3,444 6.3 -43.2°
